M I D A S
Marine Information and Data Acquisition System
Tripno 457 of the Zeeleeuw from 2003-04-01 06:32:29 to 2003-04-01 11:04:48
Back to CruiseResearch ActivitiesStationsMapUnderway DataData graphs

EquipmentUnitsComments
TimeDGPSUTC
LatitudeDGPSDM.mWGS84
LongitudeDGPSDM.mWGS84
SpeedMeteo Stationm/sRelative wind speed
DirectionMeteo StationdegRelative wind direction
TemperatureMeteo Stationdeg CelciusAir temperature
PressureMeteo StationPaAtmospheric pressure
HumidityMeteo Station%Relative humidity
Missing or incorrect values are displayed as -999
Metereological data collected by the RV Zeeleeuw from 2003-04-01 06:32:29 to 2003-04-01 11:04:48
                                                                                    Next 1000 lines
Time Latitude Longitude Speed Direction Temperature Pressure Humidity
2003-04-01 06:32:37 51°13.607 2°56.046 3.6 237 3.7 101680 81
2003-04-01 06:32:43 51°13.609 2°56.036 4.3 244 3.7 101680 81
2003-04-01 06:32:48 51°13.611 2°56.029 3.9 254 3.7 101680 81
2003-04-01 06:32:53 51°13.613 2°56.021 3.4 245 3.7 101680 81
2003-04-01 06:32:57 51°13.615 2°56.015 4.7 235 3.7 101670 81
2003-04-01 06:33:03 51°13.619 2°56.005 3.1 248 3.7 101670 81
2003-04-01 06:33:08 51°13.622 2°55.997 1.9 232 3.7 101680 81
2003-04-01 06:33:13 51°13.625 2°55.989 1.7 245 3.7 101680 81
2003-04-01 06:33:18 51°13.628 2°55.982 2.3 242 3.7 101680 81
2003-04-01 06:33:21 51°13.63 2°55.978 1.5 182 3.7 101680 81
2003-04-01 06:33:27 51°13.634 2°55.97 2.7 283 3.7 101680 80
2003-04-01 06:33:31 51°13.636 2°55.965 2.1 276 3.7 101680 80
2003-04-01 06:33:37 51°13.64 2°55.957 1.6 226 3.7 101680 80
2003-04-01 06:33:41 51°13.642 2°55.952 1.6 280 3.7 101680 80
2003-04-01 06:33:47 51°13.645 2°55.945 1.6 224 3.8 101680 80
2003-04-01 06:33:52 51°13.647 2°55.938 1.9 242 3.8 101680 80
2003-04-01 06:33:57 51°13.65 2°55.932 1.6 238 3.7 101680 80
2003-04-01 06:34:01 51°13.652 2°55.926 1.5 230 3.7 101680 80
2003-04-01 06:34:07 51°13.655 2°55.919 1.1 207 3.7 101680 80
2003-04-01 06:34:12 51°13.657 2°55.912 1.6 254 3.7 101680 80
2003-04-01 06:34:17 51°13.659 2°55.905 2.2 224 3.8 101680 80
2003-04-01 06:34:21 51°13.66 2°55.899 3.6 231 3.8 101680 80
2003-04-01 06:34:27 51°13.661 2°55.892 2.6 221 3.8 101680 80
2003-04-01 06:34:32 51°13.662 2°55.886 2.2 229 3.8 101680 80
2003-04-01 06:34:37 51°13.663 2°55.88 3.4 205 3.7 101680 80
2003-04-01 06:34:42 51°13.665 2°55.874 2.7 203 3.7 101680 80
2003-04-01 06:34:47 51°13.666 2°55.868 2.5 219 3.8 101680 80
2003-04-01 06:34:52 51°13.666 2°55.861 2.6 199 3.8 101680 80
2003-04-01 06:34:57 51°13.667 2°55.854 2 210 3.8 101680 80
2003-04-01 06:35:01 51°13.668 2°55.849 3.7 211 3.8 101680 80
2003-04-01 06:35:07 51°13.668 2°55.842 3.1 199 3.8 101680 80
2003-04-01 06:35:12 51°13.668 2°55.835 3.6 201 3.8 101680 80
2003-04-01 06:35:17 51°13.668 2°55.829 4.6 216 3.8 101680 80
2003-04-01 06:35:22 51°13.668 2°55.822 4.2 230 3.8 101680 80
2003-04-01 06:35:27 51°13.668 2°55.816 5 220 3.8 101680 80
2003-04-01 06:35:32 51°13.669 2°55.809 5 222 3.8 101680 80
2003-04-01 06:35:37 51°13.669 2°55.802 5.2 223 3.8 101680 81
2003-04-01 06:35:43 51°13.668 2°55.795 4.8 220 3.8 101680 81
2003-04-01 06:35:48 51°13.668 2°55.789 3.8 210 3.8 101680 80
2003-04-01 06:35:53 51°13.668 2°55.783 3.2 232 3.8 101680 80
2003-04-01 06:35:57 51°13.668 2°55.778 4.3 239 3.8 101680 80
2003-04-01 06:36:01 51°13.669 2°55.774 4.4 222 3.8 101680 80
2003-04-01 06:36:07 51°13.669 2°55.769 4.1 226 3.8 101680 80
2003-04-01 06:36:12 51°13.668 2°55.766 4.8 229 3.8 101680 80
2003-04-01 06:36:17 51°13.668 2°55.763 4.2 221 3.8 101680 80
2003-04-01 06:36:21 51°13.668 2°55.761 3.4 215 3.8 101680 80
2003-04-01 06:36:27 51°13.669 2°55.76 4.4 213 3.8 101680 80
2003-04-01 06:36:32 51°13.669 2°55.759 4 241 3.8 101680 80
2003-04-01 06:36:37 51°13.67 2°55.759 3.6 209 3.8 101680 80
2003-04-01 06:36:41 51°13.671 2°55.759 3.6 177 3.8 101680 80
2003-04-01 06:36:45 51°13.671 2°55.76 1.9 185 3.8 101690 80
2003-04-01 06:36:52 51°13.673 2°55.762 1.9 219 3.8 101690 80
2003-04-01 06:36:57 51°13.675 2°55.764 2.2 223 3.7 101680 80
2003-04-01 06:37:01 51°13.676 2°55.765 1.3 225 3.7 101680 80
2003-04-01 06:37:07 51°13.678 2°55.765 2.1 228 3.8 101690 80
2003-04-01 06:37:12 51°13.68 2°55.767 1.4 162 3.8 101690 80
2003-04-01 06:37:17 51°13.682 2°55.768 4.2 144 3.8 101690 80
2003-04-01 06:37:21 51°13.684 2°55.769 2.6 158 3.8 101690 80
2003-04-01 06:37:27 51°13.687 2°55.77 2.9 188 3.7 101690 80
2003-04-01 06:37:32 51°13.689 2°55.77 2.3 183 3.7 101690 80
2003-04-01 06:37:37 51°13.69 2°55.771 2.9 186 3.7 101690 80
2003-04-01 06:37:42 51°13.691 2°55.77 2.5 177 3.7 101690 80
2003-04-01 06:37:47 51°13.692 2°55.77 1.8 165 3.8 101690 80
2003-04-01 06:37:52 51°13.693 2°55.769 2.4 191 3.8 101690 80
2003-04-01 06:37:57 51°13.693 2°55.769 2 161 3.8 101690 80
2003-04-01 06:38:01 51°13.693 2°55.769 2.8 141 3.8 101690 80
2003-04-01 06:38:07 51°13.693 2°55.768 2.7 140 3.8 101690 80
2003-04-01 06:38:12 51°13.692 2°55.768 3.5 159 3.8 101690 80
2003-04-01 06:38:17 51°13.691 2°55.767 2.8 160 3.8 101690 80
2003-04-01 06:38:21 51°13.69 2°55.767 3.4 172 3.8 101690 80
2003-04-01 06:38:27 51°13.689 2°55.766 3 169 3.8 101690 80
2003-04-01 06:38:32 51°13.688 2°55.764 1.6 158 3.8 101690 80
2003-04-01 06:38:37 51°13.688 2°55.763 2 166 3.8 101690 80
2003-04-01 06:38:41 51°13.689 2°55.764 2.4 148 3.8 101690 80
2003-04-01 06:38:47 51°13.692 2°55.765 2.3 163 3.8 101690 80
2003-04-01 06:38:52 51°13.694 2°55.764 2.1 152 3.8 101690 80
2003-04-01 06:38:57 51°13.697 2°55.762 3.7 151 3.8 101690 80
2003-04-01 06:39:01 51°13.699 2°55.761 2.8 132 3.8 101690 80
2003-04-01 06:39:07 51°13.704 2°55.757 2.9 95 3.8 101690 80
2003-04-01 06:39:12 51°13.709 2°55.75 3.4 81 3.8 101690 80
2003-04-01 06:39:17 51°13.715 2°55.743 2.6 122 3.9 101690 80
2003-04-01 06:39:21 51°13.719 2°55.737 1.9 130 3.9 101690 80
2003-04-01 06:39:27 51°13.726 2°55.729 2.5 112 3.9 101690 80
2003-04-01 06:39:32 51°13.731 2°55.725 2.5 84 3.9 101690 80
2003-04-01 06:39:37 51°13.735 2°55.722 1 67 3.9 101690 80
2003-04-01 06:39:42 51°13.74 2°55.717 1.8 348 3.9 101690 80
2003-04-01 06:39:47 51°13.746 2°55.711 1.9 345 3.9 101690 79
2003-04-01 06:39:52 51°13.754 2°55.704 3.3 33 3.9 101690 79
2003-04-01 06:39:57 51°13.762 2°55.696 1.9 317 3.9 101690 79
2003-04-01 06:40:02 51°13.769 2°55.689 1.7 51 3.9 101690 79
2003-04-01 06:40:07 51°13.776 2°55.682 1.9 80 3.9 101680 79
2003-04-01 06:40:11 51°13.781 2°55.676 1.5 47 3.9 101680 79
2003-04-01 06:40:17 51°13.793 2°55.664 1.5 133 3.9 101690 79
2003-04-01 06:40:21 51°13.8 2°55.659 2.1 49 3.9 101690 79
2003-04-01 06:40:27 51°13.81 2°55.649 2.6 84 4 101690 79
2003-04-01 06:40:32 51°13.82 2°55.641 2 49 4 101690 79
2003-04-01 06:40:37 51°13.83 2°55.632 2.3 319 4 101690 79
2003-04-01 06:40:41 51°13.838 2°55.626 2.2 34 4 101690 79
2003-04-01 06:40:47 51°13.854 2°55.614 1.9 87 4 101680 79
2003-04-01 06:40:52 51°13.864 2°55.607 3.2 102 4 101680 79
2003-04-01 06:40:57 51°13.871 2°55.601 2 108 4 101680 79
2003-04-01 06:41:01 51°13.878 2°55.596 0.6 118 4 101680 79
2003-04-01 06:41:07 51°13.887 2°55.587 2 343 4 101680 79
2003-04-01 06:41:12 51°13.889 2°55.581 2.3 80 4 101680 79
2003-04-01 06:41:17 51°13.899 2°55.575 1.7 49 4 101680 79
2003-04-01 06:41:21 51°13.908 2°55.571 1.7 21 4 101680 79
2003-04-01 06:41:27 51°13.921 2°55.563 0.9 18 4 101680 79
2003-04-01 06:41:32 51°13.931 2°55.556 2.2 36 4 101680 79
2003-04-01 06:41:37 51°13.941 2°55.55 3.5 74 4 101670 79
2003-04-01 06:41:41 51°13.949 2°55.545 2.7 51 4 101670 79
2003-04-01 06:41:47 51°13.961 2°55.538 3.9 64 4 101670 79
2003-04-01 06:41:52 51°13.97 2°55.53 2.8 46 4 101670 79
2003-04-01 06:41:57 51°13.98 2°55.523 1.4 38 4 101670 79
2003-04-01 06:42:01 51°13.988 2°55.517 2 349 4 101670 79
2003-04-01 06:42:07 51°14 2°55.508 2.2 34 4.1 101670 79
2003-04-01 06:42:11 51°14.008 2°55.502 2.4 322 4.1 101670 79
2003-04-01 06:42:17 51°14.021 2°55.494 4.9 92 4.1 101670 78
2003-04-01 06:42:22 51°14.031 2°55.487 3.8 84 4.1 101670 78
2003-04-01 06:42:27 51°14.041 2°55.479 3 73 4.1 101660 78
2003-04-01 06:42:31 51°14.049 2°55.472 3.3 56 4.1 101660 78
2003-04-01 06:42:37 51°14.061 2°55.463 3.1 84 4.1 101660 78
2003-04-01 06:42:41 51°14.07 2°55.456 3.1 84 4.1 101660 78
2003-04-01 06:42:47 51°14.086 2°55.444 1.7 110 4.1 101660 78
2003-04-01 06:42:52 51°14.098 2°55.434 2.7 106 4.1 101660 78
2003-04-01 06:42:57 51°14.108 2°55.426 3 85 4.1 101670 78
2003-04-01 06:43:01 51°14.117 2°55.418 2.8 108 4.1 101670 78
2003-04-01 06:43:07 51°14.13 2°55.408 1.4 111 4.1 101660 78
2003-04-01 06:43:12 51°14.14 2°55.401 2.8 92 4.1 101660 78
2003-04-01 06:43:17 51°14.15 2°55.393 2 98 4.1 101660 78
2003-04-01 06:43:22 51°14.159 2°55.386 2.6 105 4.1 101660 78
2003-04-01 06:43:27 51°14.167 2°55.379 2 51 4.2 101650 78
2003-04-01 06:43:32 51°14.177 2°55.371 2.2 62 4.2 101650 78
2003-04-01 06:43:37 51°14.187 2°55.362 3.1 57 4.2 101660 78
2003-04-01 06:43:42 51°14.196 2°55.353 3.7 78 4.2 101660 78
2003-04-01 06:43:47 51°14.205 2°55.344 3.6 58 4.2 101650 78
2003-04-01 06:43:52 51°14.214 2°55.333 5.5 64 4.2 101650 78
2003-04-01 06:43:57 51°14.223 2°55.323 5.1 75 4.2 101660 78
2003-04-01 06:44:01 51°14.23 2°55.314 5.6 74 4.2 101660 78
2003-04-01 06:44:07 51°14.24 2°55.299 3.5 46 4.2 101650 78
2003-04-01 06:44:12 51°14.249 2°55.287 2.6 73 4.2 101650 78
2003-04-01 06:44:17 51°14.257 2°55.274 2.6 93 4.2 101650 78
2003-04-01 06:44:21 51°14.263 2°55.263 3.7 92 4.2 101650 78
2003-04-01 06:44:27 51°14.272 2°55.246 3.3 101 4.2 101650 77
2003-04-01 06:44:32 51°14.28 2°55.232 4.1 54 4.2 101650 77
2003-04-01 06:44:37 51°14.288 2°55.217 4.3 47 4.2 101640 77
2003-04-01 06:44:41 51°14.294 2°55.206 6.9 69 4.2 101640 77
2003-04-01 06:44:47 51°14.303 2°55.189 7.7 57 4.2 101640 77
2003-04-01 06:44:52 51°14.311 2°55.175 7.9 83 4.2 101640 77
2003-04-01 06:44:57 51°14.318 2°55.161 3.7 67 4.3 101640 77
2003-04-01 06:45:01 51°14.324 2°55.15 4 81 4.3 101640 77
2003-04-01 06:45:07 51°14.333 2°55.133 4.7 81 4.3 101630 77
2003-04-01 06:45:12 51°14.34 2°55.118 7.8 74 4.3 101630 77
2003-04-01 06:45:17 51°14.347 2°55.104 1.1 95 4.4 101630 77
2003-04-01 06:45:21 51°14.353 2°55.092 5.9 119 4.4 101630 77
2003-04-01 06:45:27 51°14.362 2°55.075 4.7 82 4.5 101620 77
2003-04-01 06:45:32 51°14.369 2°55.061 6.2 65 4.5 101620 77
2003-04-01 06:45:37 51°14.376 2°55.047 6.3 61 4.5 101620 77
2003-04-01 06:45:41 51°14.383 2°55.035 8.7 68 4.5 101620 77
2003-04-01 06:45:47 51°14.393 2°55.019 6.3 70 4.6 101610 76
2003-04-01 06:45:52 51°14.402 2°55.005 4.9 84 4.6 101610 76
2003-04-01 06:45:57 51°14.413 2°54.991 6.2 80 4.7 101630 76
2003-04-01 06:46:01 51°14.422 2°54.98 5.1 75 4.7 101630 76
2003-04-01 06:46:07 51°14.436 2°54.965 6.7 86 4.7 101620 76
2003-04-01 06:46:12 51°14.449 2°54.952 6.5 89 4.7 101620 76
2003-04-01 06:46:17 51°14.463 2°54.939 5.7 80 4.8 101610 76
2003-04-01 06:46:21 51°14.474 2°54.929 4.2 80 4.8 101610 76
2003-04-01 06:46:27 51°14.489 2°54.913 4.9 89 4.8 101620 76
2003-04-01 06:46:32 51°14.502 2°54.898 5.2 84 4.8 101620 76
2003-04-01 06:46:37 51°14.516 2°54.883 7.3 99 4.8 101630 76
2003-04-01 06:46:41 51°14.526 2°54.871 7.7 87 4.8 101630 76
2003-04-01 06:46:47 51°14.542 2°54.853 8.8 86 4.8 101610 76
2003-04-01 06:46:52 51°14.555 2°54.838 8.8 88 4.8 101610 76
2003-04-01 06:46:57 51°14.568 2°54.823 8.6 96 4.8 101610 75
2003-04-01 06:47:01 51°14.579 2°54.81 7.8 100 4.8 101610 75
2003-04-01 06:47:07 51°14.595 2°54.792 7.3 98 4.8 101620 75
2003-04-01 06:47:12 51°14.609 2°54.776 6.6 81 4.8 101620 75
2003-04-01 06:47:17 51°14.623 2°54.761 6.5 95 4.8 101610 75
2003-04-01 06:47:22 51°14.637 2°54.746 6.3 76 4.8 101610 75
2003-04-01 06:47:27 51°14.651 2°54.731 6.6 80 4.8 101610 75
2003-04-01 06:47:32 51°14.664 2°54.716 7.6 92 4.8 101610 75
2003-04-01 06:47:37 51°14.678 2°54.7 9.1 88 4.8 101610 75
2003-04-01 06:47:41 51°14.689 2°54.688 12.7 92 4.8 101610 75
2003-04-01 06:47:47 51°14.706 2°54.669 9.4 79 4.8 101610 76
2003-04-01 06:47:51 51°14.717 2°54.656 8.6 70 4.8 101610 76
2003-04-01 06:47:57 51°14.733 2°54.637 6.6 89 4.8 101610 76
2003-04-01 06:48:01 51°14.744 2°54.625 7.2 93 4.8 101610 76
2003-04-01 06:48:07 51°14.761 2°54.607 7.6 73 4.8 101610 76
2003-04-01 06:48:12 51°14.775 2°54.591 6.8 83 4.8 101610 76
2003-04-01 06:48:17 51°14.788 2°54.576 7.4 100 4.8 101610 76
2003-04-01 06:48:21 51°14.8 2°54.564 7.6 100 4.8 101610 76
2003-04-01 06:48:27 51°14.816 2°54.545 6.7 76 4.8 101600 76
2003-04-01 06:48:32 51°14.83 2°54.53 6 100 4.8 101600 76
2003-04-01 06:48:37 51°14.844 2°54.516 5.5 94 4.8 101600 76
2003-04-01 06:48:41 51°14.856 2°54.504 6.4 73 4.8 101600 76
2003-04-01 06:48:47 51°14.873 2°54.487 7.3 84 4.8 101610 76
2003-04-01 06:48:52 51°14.887 2°54.473 5.8 113 4.8 101610 76
2003-04-01 06:48:57 51°14.901 2°54.458 8 87 4.8 101610 76
2003-04-01 06:49:01 51°14.913 2°54.447 8.5 86 4.8 101610 76
2003-04-01 06:49:07 51°14.929 2°54.429 7.7 90 4.8 101610 77
2003-04-01 06:49:12 51°14.943 2°54.413 7.7 81 4.8 101610 77
2003-04-01 06:49:17 51°14.957 2°54.398 8.7 84 4.8 101610 77
2003-04-01 06:49:22 51°14.971 2°54.382 9.3 90 4.8 101610 77
2003-04-01 06:49:27 51°14.985 2°54.366 7.4 77 4.9 101610 77
2003-04-01 06:49:32 51°14.999 2°54.351 9.8 92 4.9 101610 77
2003-04-01 06:49:37 51°15.013 2°54.336 8.6 88 4.9 101620 77
2003-04-01 06:49:41 51°15.024 2°54.324 9.3 96 4.9 101620 77
2003-04-01 06:49:47 51°15.04 2°54.306 10.7 94 5 101610 77
2003-04-01 06:49:52 51°15.054 2°54.291 8 84 5 101610 77
2003-04-01 06:49:57 51°15.067 2°54.276 10.1 91 5 101610 77
2003-04-01 06:50:01 51°15.077 2°54.263 9.2 81 5 101610 77
2003-04-01 06:50:07 51°15.092 2°54.245 10.1 94 5.1 101610 77
2003-04-01 06:50:12 51°15.107 2°54.23 8.9 100 5.1 101610 77
2003-04-01 06:50:17 51°15.121 2°54.216 8.5 83 5.1 101610 77
2003-04-01 06:50:21 51°15.132 2°54.204 9.9 87 5.1 101610 77
2003-04-01 06:50:27 51°15.15 2°54.186 10.8 90 5.2 101620 77
2003-04-01 06:50:32 51°15.164 2°54.172 9.6 84 5.2 101620 77
2003-04-01 06:50:37 51°15.18 2°54.158 10.4 90 5.2 101620 77
2003-04-01 06:50:42 51°15.192 2°54.143 9.4 87 5.2 101620 77
2003-04-01 06:50:47 51°15.206 2°54.129 10.1 97 5.2 101620 77
2003-04-01 06:50:51 51°15.217 2°54.117 10 86 5.2 101620 77
2003-04-01 06:50:57 51°15.235 2°54.1 8.4 88 5.3 101630 77
2003-04-01 06:51:02 51°15.249 2°54.084 9.7 87 5.3 101630 77
2003-04-01 06:51:07 51°15.263 2°54.069 8.1 86 5.3 101630 76
2003-04-01 06:51:12 51°15.278 2°54.054 9.1 84 5.3 101630 76
2003-04-01 06:51:17 51°15.292 2°54.038 10.9 77 5.3 101630 76
2003-04-01 06:51:22 51°15.306 2°54.022 11.3 76 5.3 101630 76
2003-04-01 06:51:27 51°15.321 2°54.006 11.6 81 5.4 101630 76
2003-04-01 06:51:32 51°15.336 2°53.991 10.9 84 5.4 101630 76
2003-04-01 06:51:37 51°15.35 2°53.975 9 83 5.4 101620 76
2003-04-01 06:51:42 51°15.364 2°53.96 8.4 76 5.4 101620 76
2003-04-01 06:51:47 51°15.379 2°53.944 10.4 93 5.4 101620 76
2003-04-01 06:51:52 51°15.394 2°53.929 8.1 85 5.4 101620 76
2003-04-01 06:51:57 51°15.408 2°53.914 8.4 83 5.4 101620 75
2003-04-01 06:52:01 51°15.42 2°53.901 10.2 78 5.4 101620 75
2003-04-01 06:52:07 51°15.438 2°53.882 9 82 5.5 101630 75
2003-04-01 06:52:11 51°15.45 2°53.87 9.2 82 5.5 101630 75
2003-04-01 06:52:17 51°15.469 2°53.852 9.6 77 5.5 101620 75
2003-04-01 06:52:21 51°15.481 2°53.84 8.9 81 5.5 101620 75
2003-04-01 06:52:27 51°15.499 2°53.821 8 77 5.5 101630 75
2003-04-01 06:52:32 51°15.515 2°53.806 11 87 5.5 101630 75
2003-04-01 06:52:37 51°15.531 2°53.79 8.6 79 5.5 101630 75
2003-04-01 06:52:41 51°15.543 2°53.778 10.5 86 5.5 101630 75
2003-04-01 06:52:47 51°15.561 2°53.759 9.8 87 5.5 101630 75
2003-04-01 06:52:52 51°15.577 2°53.743 10.8 88 5.5 101630 75
2003-04-01 06:52:57 51°15.592 2°53.727 7.5 77 5.5 101630 75
2003-04-01 06:53:01 51°15.606 2°53.715 7.5 80 5.5 101630 75
2003-04-01 06:53:07 51°15.626 2°53.695 9.5 83 5.6 101620 75
2003-04-01 06:53:12 51°15.642 2°53.678 8.4 64 5.6 101620 75
2003-04-01 06:53:17 51°15.657 2°53.662 9.6 78 5.6 101620 75
2003-04-01 06:53:21 51°15.67 2°53.649 8.8 69 5.6 101620 75
2003-04-01 06:53:27 51°15.689 2°53.629 8.7 83 5.6 101610 75
2003-04-01 06:53:31 51°15.702 2°53.616 8.5 76 5.6 101610 75
2003-04-01 06:53:37 51°15.722 2°53.596 9.5 75 5.6 101620 75
2003-04-01 06:53:42 51°15.738 2°53.58 9.5 75 5.6 101620 75
2003-04-01 06:53:47 51°15.755 2°53.564 8.9 87 5.6 101620 75
2003-04-01 06:53:52 51°15.772 2°53.547 8.8 78 5.6 101620 75
2003-04-01 06:53:57 51°15.789 2°53.531 9 88 5.7 101610 75
2003-04-01 06:54:02 51°15.805 2°53.514 9.2 77 5.7 101610 75
2003-04-01 06:54:07 51°15.822 2°53.497 8.7 80 5.6 101610 75
2003-04-01 06:54:12 51°15.839 2°53.481 9.3 80 5.6 101610 75
2003-04-01 06:54:17 51°15.855 2°53.464 10.5 90 5.6 101610 75
2003-04-01 06:54:21 51°15.869 2°53.452 8.2 88 5.6 101610 75
2003-04-01 06:54:27 51°15.888 2°53.432 8.2 77 5.6 101620 75
2003-04-01 06:54:32 51°15.905 2°53.416 8.8 84 5.6 101620 75
2003-04-01 06:54:38 51°15.924 2°53.396 8.1 82 5.6 101610 75
2003-04-01 06:54:41 51°15.934 2°53.388 8.1 77 5.6 101610 75
2003-04-01 06:54:47 51°15.955 2°53.369 7.1 73 5.6 101610 75
2003-04-01 06:54:52 51°15.972 2°53.354 9.8 88 5.6 101610 75
2003-04-01 06:54:57 51°15.99 2°53.34 8.4 85 5.6 101620 75
2003-04-01 06:55:01 51°16.003 2°53.327 7.4 81 5.6 101620 75
2003-04-01 06:55:07 51°16.024 2°53.31 7.5 78 5.6 101600 76
2003-04-01 06:55:13 51°16.045 2°53.292 9.2 88 5.6 101600 76
2003-04-01 06:55:17 51°16.059 2°53.279 7.6 79 5.6 101620 76
2003-04-01 06:55:21 51°16.072 2°53.267 8.9 97 5.6 101620 76
2003-04-01 06:55:27 51°16.092 2°53.249 7.3 77 5.6 101610 75
2003-04-01 06:55:32 51°16.109 2°53.234 7.9 85 5.6 101610 75
2003-04-01 06:55:37 51°16.127 2°53.22 8 77 5.6 101610 75
2003-04-01 06:55:41 51°16.14 2°53.208 8 77 5.6 101610 75
2003-04-01 06:55:47 51°16.161 2°53.19 8.3 79 5.6 101610 75
2003-04-01 06:55:52 51°16.178 2°53.175 9.2 89 5.6 101610 75
2003-04-01 06:55:57 51°16.195 2°53.16 7.3 76 5.6 101610 76
2003-04-01 06:56:01 51°16.209 2°53.148 7.6 80 5.6 101610 76
2003-04-01 06:56:07 51°16.23 2°53.13 7.5 95 5.6 101600 76
2003-04-01 06:56:12 51°16.247 2°53.115 8.4 83 5.6 101600 76
2003-04-01 06:56:17 51°16.264 2°53.1 8.9 90 5.6 101600 76
2003-04-01 06:56:22 51°16.281 2°53.085 7.9 78 5.6 101600 76
2003-04-01 06:56:27 51°16.298 2°53.069 6.8 78 5.5 101590 76
2003-04-01 06:56:32 51°16.315 2°53.055 7.8 81 5.5 101590 76
2003-04-01 06:56:37 51°16.332 2°53.039 8.2 71 5.5 101600 76
2003-04-01 06:56:41 51°16.345 2°53.028 7.4 81 5.5 101600 76
2003-04-01 06:56:47 51°16.365 2°53.01 7.7 89 5.5 101600 76
2003-04-01 06:56:53 51°16.386 2°52.994 7.7 89 5.5 101600 76
2003-04-01 06:56:57 51°16.401 2°52.983 9.2 87 5.6 101590 77
2003-04-01 06:57:01 51°16.414 2°52.971 8.9 94 5.6 101590 77
2003-04-01 06:57:07 51°16.435 2°52.954 7.7 92 5.5 101590 77
2003-04-01 06:57:12 51°16.452 2°52.94 8.6 89 5.5 101590 77
2003-04-01 06:57:17 51°16.469 2°52.926 9.4 90 5.5 101590 77
2003-04-01 06:57:21 51°16.483 2°52.915 8.4 94 5.5 101590 77
2003-04-01 06:57:27 51°16.503 2°52.898 9.3 87 5.5 101590 77
2003-04-01 06:57:32 51°16.52 2°52.884 8.6 95 5.5 101590 77
2003-04-01 06:57:37 51°16.538 2°52.871 8.9 90 5.5 101590 77
2003-04-01 06:57:42 51°16.555 2°52.857 8.9 90 5.5 101590 77
2003-04-01 06:57:47 51°16.572 2°52.843 9.6 90 5.5 101590 77
2003-04-01 06:57:51 51°16.586 2°52.833 10 97 5.5 101590 77
2003-04-01 06:57:57 51°16.607 2°52.817 7.9 97 5.5 101590 77
2003-04-01 06:58:02 51°16.625 2°52.804 7.8 85 5.5 101590 77
2003-04-01 06:58:07 51°16.642 2°52.791 9.1 88 5.5 101590 77
2003-04-01 06:58:12 51°16.66 2°52.779 7.9 85 5.5 101590 77
2003-04-01 06:58:17 51°16.677 2°52.766 8.3 88 5.5 101590 76
2003-04-01 06:58:22 51°16.694 2°52.753 7.6 84 5.5 101590 76
2003-04-01 06:58:27 51°16.711 2°52.74 9.1 93 5.5 101590 76
2003-04-01 06:58:32 51°16.728 2°52.727 7.9 77 5.5 101590 76
2003-04-01 06:58:37 51°16.744 2°52.714 7.9 83 5.5 101590 77
2003-04-01 06:58:42 51°16.761 2°52.701 8.8 95 5.5 101590 77
2003-04-01 06:58:47 51°16.777 2°52.689 8.4 96 5.5 101580 77
2003-04-01 06:58:52 51°16.793 2°52.676 7.1 88 5.5 101580 77
2003-04-01 06:58:57 51°16.809 2°52.665 8.2 93 5.5 101590 77
2003-04-01 06:59:01 51°16.822 2°52.654 7.5 91 5.5 101590 77
2003-04-01 06:59:07 51°16.841 2°52.64 7.7 86 5.5 101590 77
2003-04-01 06:59:11 51°16.854 2°52.629 8.7 96 5.5 101590 77
2003-04-01 06:59:17 51°16.874 2°52.614 7.3 89 5.5 101590 77
2003-04-01 06:59:21 51°16.886 2°52.603 8.3 86 5.5 101590 77
2003-04-01 06:59:27 51°16.905 2°52.587 9.1 87 5.5 101590 77
2003-04-01 06:59:32 51°16.921 2°52.574 8.9 87 5.5 101590 77
2003-04-01 06:59:37 51°16.938 2°52.56 7.1 89 5.5 101580 77
2003-04-01 06:59:41 51°16.95 2°52.549 7.4 93 5.5 101580 77
2003-04-01 06:59:47 51°16.97 2°52.533 6.7 85 5.5 101590 77
2003-04-01 06:59:52 51°16.987 2°52.521 8.7 94 5.5 101590 77
2003-04-01 06:59:57 51°17.003 2°52.508 6.9 99 5.5 101590 78
2003-04-01 07:00:02 51°17.019 2°52.496 7.2 84 5.5 101590 78
2003-04-01 07:00:07 51°17.036 2°52.484 5.8 102 5.5 101590 77
2003-04-01 07:00:12 51°17.052 2°52.473 6.4 72 5.5 101590 77
2003-04-01 07:00:17 51°17.069 2°52.461 7.6 93 5.5 101590 77
2003-04-01 07:00:21 51°17.082 2°52.452 7.2 99 5.5 101590 77
2003-04-01 07:00:27 51°17.102 2°52.438 6.4 85 5.5 101590 77
2003-04-01 07:00:32 51°17.119 2°52.426 9.1 91 5.5 101590 77
2003-04-01 07:00:37 51°17.136 2°52.413 6.6 96 5.5 101590 77
2003-04-01 07:00:42 51°17.152 2°52.4 6.8 89 5.5 101590 77
2003-04-01 07:00:47 51°17.168 2°52.387 9.9 95 5.5 101590 78
2003-04-01 07:00:52 51°17.184 2°52.373 8.1 87 5.5 101590 78
2003-04-01 07:00:57 51°17.2 2°52.359 7.1 80 5.5 101590 78
2003-04-01 07:01:01 51°17.213 2°52.348 7.7 95 5.5 101590 78
2003-04-01 07:01:07 51°17.233 2°52.332 8.1 93 5.5 101590 77
2003-04-01 07:01:12 51°17.249 2°52.318 7.1 83 5.5 101590 77
2003-04-01 07:01:17 51°17.265 2°52.305 7.6 90 5.5 101590 78
2003-04-01 07:01:21 51°17.278 2°52.294 9 96 5.5 101590 78
2003-04-01 07:01:27 51°17.298 2°52.278 7.4 98 5.5 101590 78
2003-04-01 07:01:32 51°17.315 2°52.265 8 91 5.5 101590 78
2003-04-01 07:01:37 51°17.332 2°52.252 7.3 95 5.5 101590 78
2003-04-01 07:01:41 51°17.345 2°52.242 6.7 85 5.5 101590 78
2003-04-01 07:01:47 51°17.365 2°52.228 7.3 79 5.5 101590 78
2003-04-01 07:01:52 51°17.382 2°52.214 7.3 98 5.5 101590 78
2003-04-01 07:01:57 51°17.399 2°52.202 9.8 91 5.5 101590 78
2003-04-01 07:02:02 51°17.415 2°52.189 8.1 92 5.5 101590 78
2003-04-01 07:02:07 51°17.432 2°52.176 7.9 84 5.5 101590 78
2003-04-01 07:02:12 51°17.449 2°52.164 6.8 84 5.5 101590 78
2003-04-01 07:02:17 51°17.465 2°52.151 7.3 83 5.5 101600 78
2003-04-01 07:02:21 51°17.479 2°52.141 9.7 96 5.5 101600 78
2003-04-01 07:02:27 51°17.499 2°52.126 7.1 77 5.5 101590 78
2003-04-01 07:02:32 51°17.516 2°52.113 7.5 84 5.5 101590 78
2003-04-01 07:02:37 51°17.532 2°52.1 7.2 89 5.5 101590 78
2003-04-01 07:02:42 51°17.549 2°52.087 8.9 92 5.5 101590 78
2003-04-01 07:02:47 51°17.566 2°52.075 8.2 87 5.6 101590 78
2003-04-01 07:02:52 51°17.584 2°52.062 8.1 88 5.6 101590 78
2003-04-01 07:02:57 51°17.601 2°52.05 6.9 81 5.6 101590 79
2003-04-01 07:03:01 51°17.614 2°52.04 7.3 95 5.6 101590 79
2003-04-01 07:03:07 51°17.634 2°52.025 6.4 83 5.6 101600 79
2003-04-01 07:03:12 51°17.651 2°52.013 7.5 96 5.6 101600 79
2003-04-01 07:03:17 51°17.667 2°52 5.6 77 5.6 101600 79
2003-04-01 07:03:21 51°17.68 2°51.99 5.8 85 5.6 101600 79
2003-04-01 07:03:27 51°17.7 2°51.974 6.4 89 5.6 101590 79
2003-04-01 07:03:32 51°17.718 2°51.961 8 90 5.6 101590 79
2003-04-01 07:03:37 51°17.734 2°51.948 6.9 86 5.6 101580 79
2003-04-01 07:03:41 51°17.748 2°51.938 7.2 91 5.6 101580 79
2003-04-01 07:03:47 51°17.767 2°51.922 7.6 91 5.6 101590 79
2003-04-01 07:03:52 51°17.784 2°51.91 6.3 77 5.6 101590 79
2003-04-01 07:03:57 51°17.8 2°51.897 7.5 81 5.6 101580 79
2003-04-01 07:04:01 51°17.814 2°51.887 8.3 95 5.6 101580 79
2003-04-01 07:04:07 51°17.835 2°51.872 8.4 83 5.6 101580 79
2003-04-01 07:04:12 51°17.851 2°51.859 7.3 81 5.6 101580 79
2003-04-01 07:04:17 51°17.867 2°51.847 7.1 80 5.6 101580 79
2003-04-01 07:04:21 51°17.88 2°51.836 7.3 76 5.6 101580 79
2003-04-01 07:04:27 51°17.899 2°51.821 9.4 87 5.7 101590 80
2003-04-01 07:04:32 51°17.916 2°51.808 7.7 93 5.7 101590 80
2003-04-01 07:04:37 51°17.933 2°51.795 8.5 86 5.7 101590 80
2003-04-01 07:04:41 51°17.946 2°51.785 8 92 5.7 101590 80
2003-04-01 07:04:47 51°17.966 2°51.77 8.8 83 5.7 101580 80
2003-04-01 07:04:52 51°17.983 2°51.757 8.3 94 5.7 101580 80
2003-04-01 07:04:57 51°17.999 2°51.745 9 85 5.7 101600 80
2003-04-01 07:05:01 51°18.012 2°51.734 10.1 93 5.7 101600 80
2003-04-01 07:05:07 51°18.032 2°51.719 9.2 92 5.8 101580 80
2003-04-01 07:05:12 51°18.049 2°51.707 9.9 96 5.8 101580 80
2003-04-01 07:05:17 51°18.066 2°51.694 7.4 84 5.8 101570 79
2003-04-01 07:05:21 51°18.079 2°51.683 10.4 96 5.8 101570 79
2003-04-01 07:05:27 51°18.099 2°51.667 11 89 5.8 101580 79
2003-04-01 07:05:32 51°18.116 2°51.654 9.6 98 5.8 101580 79
2003-04-01 07:05:37 51°18.134 2°51.64 8.4 88 5.9 101580 79
2003-04-01 07:05:42 51°18.15 2°51.626 8 100 5.9 101580 79
2003-04-01 07:05:47 51°18.168 2°51.613 8.6 79 5.9 101570 79
2003-04-01 07:05:52 51°18.185 2°51.6 9.3 90 5.9 101570 79
2003-04-01 07:05:57 51°18.202 2°51.586 9.4 93 5.9 101570 78
2003-04-01 07:06:01 51°18.216 2°51.576 8.7 85 5.9 101570 78
2003-04-01 07:06:07 51°18.237 2°51.559 8.2 86 6 101570 78
2003-04-01 07:06:12 51°18.254 2°51.546 8.3 81 6 101570 78
2003-04-01 07:06:17 51°18.271 2°51.533 8.8 89 6 101570 78
2003-04-01 07:06:21 51°18.285 2°51.522 7.8 86 6 101570 78
2003-04-01 07:06:27 51°18.305 2°51.506 8.7 84 6 101560 78
2003-04-01 07:06:32 51°18.322 2°51.492 8 82 6 101560 78
2003-04-01 07:06:37 51°18.339 2°51.479 8.2 87 6.1 101560 78
2003-04-01 07:06:41 51°18.352 2°51.468 9.5 91 6.1 101560 78
2003-04-01 07:06:47 51°18.373 2°51.452 9.8 94 6.1 101570 78
2003-04-01 07:06:52 51°18.39 2°51.438 8.2 84 6.1 101570 78
2003-04-01 07:06:57 51°18.407 2°51.424 7.4 81 6.1 101570 78
2003-04-01 07:07:01 51°18.421 2°51.413 8.6 87 6.1 101570 78
2003-04-01 07:07:07 51°18.441 2°51.397 8 88 6.1 101570 78
2003-04-01 07:07:12 51°18.458 2°51.384 7.4 82 6.1 101570 78
2003-04-01 07:07:17 51°18.476 2°51.37 8.3 82 6.1 101570 78
2003-04-01 07:07:21 51°18.489 2°51.359 9 80 6.1 101570 78
2003-04-01 07:07:27 51°18.51 2°51.343 8.6 82 6.2 101570 78
2003-04-01 07:07:32 51°18.527 2°51.329 7.2 64 6.2 101570 78
2003-04-01 07:07:37 51°18.545 2°51.315 8.2 83 6.2 101570 78
2003-04-01 07:07:41 51°18.559 2°51.305 7.8 82 6.2 101570 78
2003-04-01 07:07:47 51°18.579 2°51.288 7.7 81 6.1 101570 78
2003-04-01 07:07:52 51°18.596 2°51.274 9.4 89 6.1 101570 78
2003-04-01 07:07:57 51°18.614 2°51.26 6.9 71 6.2 101570 78
2003-04-01 07:08:01 51°18.628 2°51.249 9.7 85 6.2 101570 78
2003-04-01 07:08:07 51°18.649 2°51.232 8.6 84 6.2 101560 78
2003-04-01 07:08:12 51°18.666 2°51.218 7.9 75 6.2 101560 78
2003-04-01 07:08:17 51°18.684 2°51.203 7.4 70 6.2 101570 78
2003-04-01 07:08:21 51°18.697 2°51.192 8.3 85 6.2 101570 78
2003-04-01 07:08:27 51°18.718 2°51.175 8.5 77 6.2 101570 78
2003-04-01 07:08:32 51°18.735 2°51.162 7.1 74 6.2 101570 78
2003-04-01 07:08:37 51°18.753 2°51.148 8.1 74 6.2 101560 78
2003-04-01 07:08:41 51°18.767 2°51.136 7.8 75 6.2 101560 78
2003-04-01 07:08:47 51°18.788 2°51.12 7.4 73 6.2 101570 78
2003-04-01 07:08:51 51°18.801 2°51.108 7.8 81 6.2 101570 78
2003-04-01 07:08:57 51°18.821 2°51.092 8.7 75 6.2 101570 78
2003-04-01 07:09:02 51°18.838 2°51.078 8.1 76 6.2 101570 78
2003-04-01 07:09:07 51°18.854 2°51.064 8.5 81 6.3 101570 78
2003-04-01 07:09:12 51°18.871 2°51.049 8.4 69 6.3 101570 78
2003-04-01 07:09:17 51°18.889 2°51.036 10.2 73 6.3 101580 78
2003-04-01 07:09:22 51°18.906 2°51.021 9 66 6.3 101580 78
2003-04-01 07:09:27 51°18.924 2°51.008 8.7 77 6.3 101570 78
2003-04-01 07:09:32 51°18.941 2°50.994 9.3 87 6.3 101570 78
2003-04-01 07:09:37 51°18.958 2°50.98 10.1 72 6.3 101580 78
2003-04-01 07:09:41 51°18.972 2°50.969 9.2 73 6.3 101580 78
2003-04-01 07:09:47 51°18.993 2°50.952 10.7 82 6.3 101570 78
2003-04-01 07:09:52 51°19.01 2°50.939 7.6 69 6.3 101570 78
2003-04-01 07:09:57 51°19.027 2°50.925 10.3 77 6.4 101570 78
2003-04-01 07:10:01 51°19.039 2°50.912 10 74 6.4 101570 78
2003-04-01 07:10:07 51°19.059 2°50.893 9.9 71 6.4 101570 78
2003-04-01 07:10:12 51°19.076 2°50.875 9.2 63 6.4 101570 78
2003-04-01 07:10:17 51°19.091 2°50.858 10.2 75 6.4 101570 77
2003-04-01 07:10:22 51°19.107 2°50.84 9.9 68 6.4 101570 77
2003-04-01 07:10:27 51°19.122 2°50.822 9.2 67 6.4 101580 77
2003-04-01 07:10:32 51°19.138 2°50.804 10.1 69 6.4 101580 77
2003-04-01 07:10:37 51°19.153 2°50.785 9.4 75 6.4 101580 77
2003-04-01 07:10:41 51°19.166 2°50.77 9.7 68 6.4 101580 77
2003-04-01 07:10:47 51°19.184 2°50.747 9 74 6.5 101560 77
2003-04-01 07:10:52 51°19.2 2°50.729 9.2 72 6.5 101560 77
2003-04-01 07:10:57 51°19.216 2°50.71 10.5 75 6.5 101560 77
2003-04-01 07:11:01 51°19.229 2°50.695 10 69 6.5 101560 77
2003-04-01 07:11:07 51°19.247 2°50.673 10.8 66 6.5 101570 77
2003-04-01 07:11:11 51°19.259 2°50.658 9.7 76 6.5 101570 77
2003-04-01 07:11:17 51°19.278 2°50.636 8.9 65 6.5 101570 77
2003-04-01 07:11:21 51°19.29 2°50.621 10.2 67 6.5 101570 77
2003-04-01 07:11:27 51°19.308 2°50.599 8.6 70 6.5 101570 77
2003-04-01 07:11:32 51°19.324 2°50.582 9.7 69 6.5 101570 77
2003-04-01 07:11:37 51°19.339 2°50.563 9.3 72 6.6 101570 77
2003-04-01 07:11:41 51°19.352 2°50.549 10 70 6.6 101570 77
2003-04-01 07:11:47 51°19.371 2°50.527 9.7 66 6.6 101560 77
2003-04-01 07:11:52 51°19.386 2°50.509 9.6 70 6.6 101560 77
2003-04-01 07:11:57 51°19.402 2°50.491 11 74 6.6 101570 77
2003-04-01 07:12:02 51°19.418 2°50.473 8.3 71 6.6 101570 77
2003-04-01 07:12:07 51°19.434 2°50.454 9.6 67 6.6 101560 77
2003-04-01 07:12:11 51°19.446 2°50.44 8.9 70 6.6 101560 77
2003-04-01 07:12:17 51°19.465 2°50.418 8.6 66 6.6 101560 77
2003-04-01 07:12:21 51°19.478 2°50.404 11 70 6.6 101560 77
2003-04-01 07:12:27 51°19.496 2°50.382 11.2 72 6.6 101560 77
2003-04-01 07:12:32 51°19.511 2°50.364 11 76 6.6 101560 77
2003-04-01 07:12:37 51°19.527 2°50.346 9.6 76 6.7 101550 77
2003-04-01 07:12:42 51°19.542 2°50.327 9.8 69 6.7 101550 77
2003-04-01 07:12:47 51°19.558 2°50.309 8.7 75 6.7 101560 77
2003-04-01 07:12:52 51°19.574 2°50.291 10.3 83 6.7 101560 77
2003-04-01 07:12:57 51°19.59 2°50.273 8.8 71 6.7 101570 76
2003-04-01 07:13:01 51°19.602 2°50.258 11.9 80 6.7 101570 76
2003-04-01 07:13:07 51°19.622 2°50.236 9.9 69 6.8 101560 76
2003-04-01 07:13:12 51°19.639 2°50.217 10.9 81 6.8 101560 76
2003-04-01 07:13:17 51°19.655 2°50.2 10.9 70 6.8 101550 76
2003-04-01 07:13:21 51°19.667 2°50.185 10.2 66 6.8 101550 76
2003-04-01 07:13:27 51°19.684 2°50.16 10.5 66 6.8 101560 75
2003-04-01 07:13:32 51°19.699 2°50.138 10.9 68 6.8 101560 75
2003-04-01 07:13:37 51°19.713 2°50.115 11.9 58 6.8 101560 75
2003-04-01 07:13:41 51°19.723 2°50.095 12.4 59 6.8 101560 75
2003-04-01 07:13:47 51°19.737 2°50.064 13.8 55 6.9 101560 75
2003-04-01 07:13:52 51°19.747 2°50.037 12.5 50 6.9 101560 75
2003-04-01 07:13:57 51°19.755 2°50.008 13 47 6.9 101550 75
2003-04-01 07:14:01 51°19.761 2°49.984 13.4 46 6.9 101550 75
2003-04-01 07:14:07 51°19.769 2°49.947 16.2 48 6.9 101550 74
2003-04-01 07:14:12 51°19.775 2°49.916 14.8 133 6.9 101550 74
2003-04-01 07:14:17 51°19.78 2°49.885 14.1 38 6.9 101530 74
2003-04-01 07:14:21 51°19.784 2°49.86 17 317 6.9 101530 74
2003-04-01 07:14:27 51°19.789 2°49.821 16.6 43 7 101510 74
2003-04-01 07:14:32 51°19.792 2°49.789 14.4 44 7 101510 74
2003-04-01 07:14:37 51°19.794 2°49.756 15.7 41 7 101540 74
2003-04-01 07:14:41 51°19.795 2°49.729 15.8 38 7 101540 74
2003-04-01 07:14:47 51°19.797 2°49.69 16.6 37 7 101520 73
2003-04-01 07:14:52 51°19.797 2°49.657 15 35 7 101520 73
2003-04-01 07:14:57 51°19.798 2°49.624 15.6 36 7 101510 73
2003-04-01 07:15:01 51°19.798 2°49.597 17.1 35 7 101510 73
2003-04-01 07:15:07 51°19.798 2°49.557 16.9 31 7 101490 73
2003-04-01 07:15:11 51°19.798 2°49.531 16.9 37 7 101490 73
2003-04-01 07:15:17 51°19.797 2°49.491 15.5 35 7 101490 73
2003-04-01 07:15:21 51°19.796 2°49.465 14.6 33 7 101490 73
2003-04-01 07:15:27 51°19.795 2°49.425 15.1 32 7 101480 73
2003-04-01 07:15:32 51°19.795 2°49.391 15.9 31 7 101480 73
2003-04-01 07:15:37 51°19.794 2°49.358 14.8 33 7.1 101480 72
2003-04-01 07:15:41 51°19.793 2°49.331 14.8 28 7.1 101480 72
2003-04-01 07:15:47 51°19.793 2°49.291 17.3 33 7.1 101490 73
2003-04-01 07:15:52 51°19.792 2°49.258 16.6 37 7.1 101490 73
2003-04-01 07:15:57 51°19.791 2°49.225 15.4 36 7.1 101480 73
2003-04-01 07:16:01 51°19.79 2°49.198 14.7 33 7.1 101480 73
2003-04-01 07:16:07 51°19.79 2°49.158 14.5 32 7.1 101480 72
2003-04-01 07:16:12 51°19.789 2°49.125 16.4 33 7.1 101480 72
2003-04-01 07:16:17 51°19.789 2°49.092 15.6 37 7.1 101480 73
2003-04-01 07:16:21 51°19.788 2°49.065 14.9 33 7.1 101480 73
2003-04-01 07:16:27 51°19.787 2°49.025 15.7 33 7.1 101470 73
2003-04-01 07:16:32 51°19.786 2°48.991 15.5 32 7.1 101470 73
2003-04-01 07:16:37 51°19.786 2°48.958 15.5 34 7.1 101480 73
2003-04-01 07:16:42 51°19.785 2°48.925 14.7 32 7.1 101480 73
2003-04-01 07:16:47 51°19.784 2°48.891 16.1 31 7.1 101480 73
2003-04-01 07:16:52 51°19.783 2°48.858 15.4 32 7.1 101480 73
2003-04-01 07:16:57 51°19.782 2°48.825 14.9 30 7.1 101490 73
2003-04-01 07:17:02 51°19.781 2°48.791 15.1 31 7.1 101490 73
2003-04-01 07:17:07 51°19.781 2°48.758 16.4 30 7.1 101480 74
2003-04-01 07:17:12 51°19.78 2°48.724 16.4 34 7.1 101480 74
2003-04-01 07:17:17 51°19.78 2°48.691 17.7 34 7.1 101490 74
2003-04-01 07:17:21 51°19.78 2°48.664 16.1 36 7.1 101490 74
2003-04-01 07:17:27 51°19.779 2°48.624 15 34 7.1 101480 73
2003-04-01 07:17:32 51°19.778 2°48.591 16.1 36 7.1 101480 73
2003-04-01 07:17:37 51°19.777 2°48.558 17.6 36 7.1 101470 73
2003-04-01 07:17:41 51°19.776 2°48.531 15.3 38 7.1 101470 73
2003-04-01 07:17:47 51°19.775 2°48.491 15.9 33 7.1 101470 73
2003-04-01 07:17:51 51°19.774 2°48.464 17 34 7.1 101470 73
2003-04-01 07:17:57 51°19.773 2°48.424 16.2 37 7.1 101480 73
2003-04-01 07:18:01 51°19.773 2°48.397 17.6 35 7.1 101480 73
2003-04-01 07:18:07 51°19.772 2°48.357 15.8 31 7.2 101470 73
2003-04-01 07:18:12 51°19.771 2°48.324 17.4 35 7.2 101470 73
2003-04-01 07:18:17 51°19.77 2°48.29 16.3 31 7.1 101470 73
2003-04-01 07:18:21 51°19.77 2°48.264 17.3 30 7.1 101470 73
2003-04-01 07:18:27 51°19.769 2°48.224 16 33 7.2 101470 72
2003-04-01 07:18:31 51°19.768 2°48.198 16.2 32 7.2 101470 72
2003-04-01 07:18:37 51°19.767 2°48.158 15.7 34 7.2 101460 72
2003-04-01 07:18:41 51°19.766 2°48.132 15.2 29 7.2 101460 72
2003-04-01 07:18:47 51°19.766 2°48.092 17.6 35 7.1 101470 72
2003-04-01 07:18:52 51°19.765 2°48.059 15.5 33 7.1 101470 72
2003-04-01 07:18:57 51°19.764 2°48.025 15.9 32 7.1 101470 72
2003-04-01 07:19:01 51°19.763 2°47.999 16.2 28 7.1 101470 72
2003-04-01 07:19:07 51°19.762 2°47.959 17 33 7.1 101470 72
2003-04-01 07:19:12 51°19.762 2°47.926 16.9 33 7.1 101470 72
2003-04-01 07:19:17 51°19.762 2°47.893 17.9 35 7.1 101470 72
2003-04-01 07:19:21 51°19.761 2°47.867 16.8 33 7.1 101470 72
2003-04-01 07:19:27 51°19.76 2°47.827 16.4 32 7.1 101470 73
2003-04-01 07:19:32 51°19.759 2°47.794 16.6 33 7.1 101470 73
2003-04-01 07:19:37 51°19.759 2°47.761 14.3 33 7.1 101470 73
2003-04-01 07:19:41 51°19.758 2°47.734 17.5 34 7.1 101470 73
2003-04-01 07:19:47 51°19.757 2°47.695 16 35 7.1 101470 72
2003-04-01 07:19:52 51°19.756 2°47.662 15.6 34 7.1 101470 72
2003-04-01 07:19:57 51°19.755 2°47.629 17.1 32 7.1 101470 73
2003-04-01 07:20:01 51°19.754 2°47.602 16.7 32 7.1 101470 73
2003-04-01 07:20:07 51°19.753 2°47.563 15.8 37 7.1 101470 73
2003-04-01 07:20:12 51°19.752 2°47.529 16.6 30 7.1 101470 73
2003-04-01 07:20:17 51°19.75 2°47.496 15.6 35 7.1 101460 73
2003-04-01 07:20:21 51°19.75 2°47.469 16.2 31 7.1 101460 73
2003-04-01 07:20:27 51°19.75 2°47.43 18.1 37 7 101470 72
2003-04-01 07:20:32 51°19.749 2°47.396 17.1 34 7 101470 72
2003-04-01 07:20:37 51°19.749 2°47.363 15.7 32 7 101470 73
2003-04-01 07:20:41 51°19.748 2°47.336 14.5 34 7 101470 73
2003-04-01 07:20:47 51°19.748 2°47.296 16.1 32 7 101470 73
2003-04-01 07:20:52 51°19.747 2°47.263 14.9 33 7 101470 73
2003-04-01 07:20:57 51°19.746 2°47.229 16.5 29 7 101460 73
2003-04-01 07:21:01 51°19.746 2°47.203 15.4 36 7 101460 73
2003-04-01 07:21:07 51°19.744 2°47.162 16.2 29 7 101460 73
2003-04-01 07:21:12 51°19.744 2°47.128 15.2 36 7 101460 73
2003-04-01 07:21:17 51°19.743 2°47.095 15.7 33 7 101470 74
2003-04-01 07:21:21 51°19.742 2°47.068 16.2 31 7 101470 74
2003-04-01 07:21:27 51°19.74 2°47.028 15.8 32 7 101470 74
2003-04-01 07:21:32 51°19.739 2°46.994 17.1 32 7 101470 74
2003-04-01 07:21:37 51°19.738 2°46.961 15.3 32 7 101470 74
2003-04-01 07:21:41 51°19.738 2°46.934 16.3 33 7 101470 74
2003-04-01 07:21:47 51°19.736 2°46.894 15.6 31 7 101480 75
2003-04-01 07:21:52 51°19.735 2°46.86 16.4 34 7 101480 75
2003-04-01 07:21:57 51°19.733 2°46.826 15.8 32 7 101470 74
2003-04-01 07:22:02 51°19.732 2°46.793 16.6 35 7 101470 74
2003-04-01 07:22:07 51°19.731 2°46.76 18.9 36 7 101460 74
2003-04-01 07:22:12 51°19.73 2°46.726 14.7 35 7 101460 74
2003-04-01 07:22:17 51°19.729 2°46.693 17.6 35 7 101460 74
2003-04-01 07:22:22 51°19.729 2°46.659 16.4 30 7 101460 74
2003-04-01 07:22:27 51°19.728 2°46.625 16.6 32 7 101460 74
2003-04-01 07:22:32 51°19.727 2°46.592 16.2 35 7 101460 74
2003-04-01 07:22:37 51°19.726 2°46.558 17.7 36 7 101470 74
2003-04-01 07:22:41 51°19.725 2°46.531 15.6 32 7 101470 74
2003-04-01 07:22:47 51°19.723 2°46.491 15.2 33 7 101460 74
2003-04-01 07:22:52 51°19.722 2°46.457 15.8 33 7 101460 74
2003-04-01 07:22:57 51°19.721 2°46.424 15.8 33 7 101510 74
2003-04-01 07:23:01 51°19.72 2°46.397 15.8 32 7 101510 74
2003-04-01 07:23:07 51°19.719 2°46.356 16.2 32 7 101470 74
2003-04-01 07:23:12 51°19.718 2°46.323 15.8 37 7 101470 74
2003-04-01 07:23:17 51°19.717 2°46.289 17.3 34 7 101470 74
2003-04-01 07:23:21 51°19.716 2°46.262 15.9 33 7 101470 74
2003-04-01 07:23:27 51°19.715 2°46.222 16.1 34 7 101470 74
2003-04-01 07:23:32 51°19.715 2°46.188 15.5 35 7 101470 74
2003-04-01 07:23:37 51°19.715 2°46.154 16.8 35 7 101470 74
2003-04-01 07:23:41 51°19.714 2°46.127 16.6 36 7 101470 74
2003-04-01 07:23:47 51°19.713 2°46.087 15.5 33 7 101470 74
2003-04-01 07:23:52 51°19.713 2°46.054 15 31 7 101470 74
2003-04-01 07:23:57 51°19.713 2°46.02 16 35 7 101470 74
2003-04-01 07:24:01 51°19.712 2°45.994 15.6 34 7 101470 74
2003-04-01 07:24:07 51°19.71 2°45.954 14.7 34 7 101470 74
2003-04-01 07:24:12 51°19.709 2°45.921 14.5 30 7 101470 74
2003-04-01 07:24:17 51°19.708 2°45.888 14.1 34 7 101480 74
2003-04-01 07:24:22 51°19.707 2°45.855 15.9 36 7 101480 74
2003-04-01 07:24:27 51°19.706 2°45.821 14.3 35 7.1 101480 74
2003-04-01 07:24:32 51°19.705 2°45.788 16.1 37 7.1 101480 74
2003-04-01 07:24:37 51°19.704 2°45.755 15.7 37 7 101480 74
2003-04-01 07:24:41 51°19.704 2°45.729 15.5 32 7 101480 74
2003-04-01 07:24:47 51°19.703 2°45.689 15.1 31 7.1 101480 74
2003-04-01 07:24:52 51°19.702 2°45.656 14.8 33 7.1 101480 74
2003-04-01 07:24:57 51°19.702 2°45.622 14.7 36 7.1 101480 74
2003-04-01 07:25:01 51°19.702 2°45.596 15.4 26 7.1 101480 74
2003-04-01 07:25:07 51°19.701 2°45.555 16.2 27 7.1 101490 74
2003-04-01 07:25:12 51°19.7 2°45.522 15 33 7.1 101490 74
2003-04-01 07:25:17 51°19.7 2°45.489 14.5 32 7.1 101480 74
2003-04-01 07:25:21 51°19.699 2°45.462 15.1 29 7.1 101480 74
2003-04-01 07:25:27 51°19.698 2°45.423 15.6 29 7.1 101490 74
2003-04-01 07:25:32 51°19.697 2°45.389 15.2 29 7.1 101490 74
2003-04-01 07:25:37 51°19.696 2°45.355 15.7 26 7.1 101480 74
2003-04-01 07:25:41 51°19.693 2°45.328 15.8 23 7.1 101480 74
2003-04-01 07:25:47 51°19.689 2°45.289 16.6 21 7.1 101490 74
2003-04-01 07:25:52 51°19.685 2°45.256 16.6 21 7.1 101490 74
2003-04-01 07:25:57 51°19.679 2°45.224 15.8 22 7.1 101480 74
2003-04-01 07:26:01 51°19.673 2°45.198 17 16 7.1 101480 74
2003-04-01 07:26:07 51°19.664 2°45.161 16.4 17 7.1 101480 74
2003-04-01 07:26:12 51°19.656 2°45.13 16.7 13 7.1 101480 74
2003-04-01 07:26:17 51°19.646 2°45.1 16.4 13 7.1 101490 74
2003-04-01 07:26:21 51°19.639 2°45.077 17.5 8 7.1 101490 74
2003-04-01 07:26:27 51°19.626 2°45.042 16.9 10 7.1 101490 74
2003-04-01 07:26:32 51°19.614 2°45.015 17.1 2 7.1 101490 74
2003-04-01 07:26:37 51°19.603 2°44.987 16.2 10 7.2 101490 75
2003-04-01 07:26:42 51°19.59 2°44.962 16.4 9 7.2 101490 75
2003-04-01 07:26:45 51°19.582 2°44.946 16.8 2 7.2 101490 75
2003-04-01 07:26:52 51°19.565 2°44.909 15.6 5 7.2 101490 75
2003-04-01 07:26:57 51°19.551 2°44.884 16.6 4 7.2 101490 75
2003-04-01 07:27:01 51°19.541 2°44.864 15.2 360 7.2 101490 75
2003-04-01 07:27:07 51°19.524 2°44.833 15.8 1 7.2 101500 75
2003-04-01 07:27:12 51°19.51 2°44.808 16.1 358 7.2 101500 75
2003-04-01 07:27:17 51°19.496 2°44.785 18 1 7.2 101500 75
2003-04-01 07:27:21 51°19.485 2°44.766 16.6 354 7.2 101500 75
2003-04-01 07:27:27 51°19.468 2°44.736 16.6 2 7.2 101500 75
2003-04-01 07:27:32 51°19.453 2°44.713 16.5 2 7.2 101500 75
2003-04-01 07:27:37 51°19.439 2°44.689 17.3 4 7.2 101510 75
2003-04-01 07:27:41 51°19.428 2°44.67 16.1 358 7.2 101510 75
2003-04-01 07:27:47 51°19.41 2°44.642 15.8 3 7.2 101500 74
2003-04-01 07:27:52 51°19.396 2°44.617 16.3 3 7.2 101500 74
2003-04-01 07:27:57 51°19.382 2°44.594 15.5 358 7.2 101510 74
2003-04-01 07:28:01 51°19.371 2°44.575 16 1 7.2 101510 74
2003-04-01 07:28:07 51°19.354 2°44.546 15.7 358 7.2 101510 74
2003-04-01 07:28:12 51°19.339 2°44.522 16.9 4 7.2 101510 74
2003-04-01 07:28:17 51°19.325 2°44.498 18.2 4 7.3 101540 74
2003-04-01 07:28:22 51°19.311 2°44.474 17.1 4 7.3 101540 74
2003-04-01 07:28:27 51°19.296 2°44.45 18.2 5 7.3 101530 74
2003-04-01 07:28:32 51°19.282 2°44.426 17.6 2 7.3 101530 74
2003-04-01 07:28:37 51°19.268 2°44.402 17 1 7.3 101510 74
2003-04-01 07:28:42 51°19.253 2°44.377 17.1 1 7.3 101510 74
2003-04-01 07:28:47 51°19.239 2°44.352 16.5 2 7.3 101500 74
2003-04-01 07:28:52 51°19.225 2°44.328 16.9 4 7.3 101500 74
2003-04-01 07:28:57 51°19.211 2°44.303 16 4 7.3 101500 73
2003-04-01 07:29:01 51°19.2 2°44.284 17.3 3 7.3 101500 73
2003-04-01 07:29:05 51°19.188 2°44.267 16.6 7 7.3 101500 73
2003-04-01 07:29:11 51°19.173 2°44.238 15.6 2 7.3 101500 73
2003-04-01 07:29:17 51°19.158 2°44.213 15.1 7 7.3 101500 72
2003-04-01 07:29:22 51°19.147 2°44.192 15.5 1 7.3 101500 72
2003-04-01 07:29:27 51°19.135 2°44.173 15.1 3 7.3 101490 72
2003-04-01 07:29:32 51°19.125 2°44.154 14.7 6 7.3 101490 72
2003-04-01 07:29:37 51°19.114 2°44.136 13.9 7 7.3 101550 72
2003-04-01 07:29:41 51°19.106 2°44.121 15.2 7 7.3 101550 72
2003-04-01 07:29:47 51°19.095 2°44.099 14.5 5 7.4 101510 72
2003-04-01 07:29:52 51°19.086 2°44.081 15.4 3 7.4 101510 72
2003-04-01 07:29:57 51°19.077 2°44.065 15.9 7 7.4 101520 72
2003-04-01 07:30:02 51°19.07 2°44.049 13.3 9 7.4 101520 72
2003-04-01 07:30:07 51°19.063 2°44.034 12.8 9 7.4 101510 72
2003-04-01 07:30:12 51°19.056 2°44.019 11.3 14 7.4 101510 72
2003-04-01 07:30:17 51°19.05 2°44.005 12.5 16 7.4 101550 71
2003-04-01 07:30:22 51°19.044 2°43.991 13.8 17 7.4 101550 71
2003-04-01 07:30:27 51°19.038 2°43.978 13.4 14 7.4 101510 71
2003-04-01 07:30:32 51°19.033 2°43.965 14.3 11 7.4 101510 71
2003-04-01 07:30:37 51°19.028 2°43.952 15.1 11 7.4 101530 72
2003-04-01 07:30:41 51°19.024 2°43.943 14.1 6 7.4 101530 72
2003-04-01 07:30:47 51°19.017 2°43.929 13.7 6 7.4 101520 71
2003-04-01 07:30:52 51°19.012 2°43.919 12.5 1 7.4 101520 71
2003-04-01 07:30:57 51°19.005 2°43.909 12.2 4 7.4 101520 71
2003-04-01 07:31:02 51°19 2°43.899 12.2 1 7.4 101520 71
2003-04-01 07:31:07 51°18.994 2°43.89 11.9 2 7.4 101520 71
2003-04-01 07:31:13 51°18.988 2°43.879 12 6 7.4 101520 71
2003-04-01 07:31:17 51°18.984 2°43.872 13 5 7.4 101550 71
2003-04-01 07:31:21 51°18.979 2°43.864 12.5 8 7.4 101550 71
2003-04-01 07:31:27 51°18.973 2°43.854 12.7 3 7.4 101550 71
2003-04-01 07:31:31 51°18.969 2°43.847 11.6 5 7.4 101550 71
2003-04-01 07:31:37 51°18.964 2°43.837 11.9 6 7.4 101530 71
2003-04-01 07:31:43 51°18.959 2°43.827 11.3 6 7.4 101530 71
2003-04-01 07:31:47 51°18.956 2°43.821 11.8 8 7.4 101520 71
2003-04-01 07:31:52 51°18.952 2°43.813 11.5 11 7.4 101520 71
2003-04-01 07:31:57 51°18.948 2°43.804 12.1 9 7.4 101530 70
2003-04-01 07:32:01 51°18.945 2°43.798 10.6 14 7.4 101530 70
2003-04-01 07:32:07 51°18.942 2°43.79 12.1 12 7.4 101520 70
2003-04-01 07:32:12 51°18.939 2°43.785 11.6 15 7.4 101520 70
2003-04-01 07:32:17 51°18.938 2°43.781 9.7 19 7.4 101530 70
2003-04-01 07:32:22 51°18.937 2°43.778 10.6 24 7.4 101530 70
2003-04-01 07:32:27 51°18.936 2°43.776 11 27 7.4 101550 70
2003-04-01 07:32:33 51°18.936 2°43.775 9.6 36 7.4 101550 70
2003-04-01 07:32:37 51°18.936 2°43.775 10.2 35 7.3 101560 70
2003-04-01 07:32:41 51°18.936 2°43.775 11.8 43 7.3 101560 70
2003-04-01 07:32:48 51°18.937 2°43.774 9.6 41 7.4 101530 71
2003-04-01 07:32:53 51°18.936 2°43.774 8.9 132 7.4 101530 71
2003-04-01 07:32:57 51°18.936 2°43.774 10.1 46 7.4 101530 70
2003-04-01 07:33:02 51°18.936 2°43.774 9.3 130 7.4 101530 70
2003-04-01 07:33:07 51°18.936 2°43.773 9.8 48 7.4 101530 70
2003-04-01 07:33:11 51°18.935 2°43.772 9.2 51 7.4 101530 70
2003-04-01 07:33:17 51°18.935 2°43.772 9.4 54 7.4 101570 70
2003-04-01 07:33:21 51°18.934 2°43.771 9.2 50 7.4 101570 70
2003-04-01 07:33:27 51°18.934 2°43.77 10.5 51 7.4 101530 70
2003-04-01 07:33:32 51°18.934 2°43.768 10.6 54 7.4 101530 70
2003-04-01 07:33:37 51°18.935 2°43.767 10.7 52 7.4 101530 71
2003-04-01 07:33:41 51°18.936 2°43.765 10.8 55 7.4 101530 71
2003-04-01 07:33:47 51°18.936 2°43.763 11.3 55 7.4 101530 72
2003-04-01 07:33:51 51°18.935 2°43.762 10.6 54 7.4 101530 72
2003-04-01 07:33:57 51°18.935 2°43.76 10 56 7.4 101530 72
2003-04-01 07:34:02 51°18.935 2°43.758 11.6 67 7.4 101530 72
2003-04-01 07:34:07 51°18.935 2°43.756 9.4 67 7.4 101520 71
2003-04-01 07:34:12 51°18.935 2°43.754 11.1 69 7.4 101520 71
2003-04-01 07:34:17 51°18.935 2°43.752 11.1 70 7.4 101520 71
2003-04-01 07:34:22 51°18.935 2°43.75 11.7 76 7.4 101520 71
2003-04-01 07:34:27 51°18.935 2°43.748 10.3 76 7.4 101550 71
2003-04-01 07:34:31 51°18.935 2°43.746 9.3 74 7.4 101550 71
2003-04-01 07:34:37 51°18.935 2°43.744 10.4 78 7.4 101550 71
2003-04-01 07:34:41 51°18.935 2°43.743 10.9 72 7.4 101550 71
2003-04-01 07:34:47 51°18.935 2°43.741 10.1 78 7.4 101560 71
2003-04-01 07:34:52 51°18.935 2°43.739 10.1 73 7.4 101560 71
2003-04-01 07:34:57 51°18.935 2°43.737 11.3 81 7.4 101550 71
2003-04-01 07:35:03 51°18.935 2°43.735 11.3 74 7.4 101550 71
2003-04-01 07:35:07 51°18.935 2°43.733 11.3 79 7.4 101560 71
2003-04-01 07:35:12 51°18.935 2°43.731 10.8 82 7.4 101560 71
2003-04-01 07:35:17 51°18.936 2°43.729 10 76 7.3 101570 71
2003-04-01 07:35:21 51°18.936 2°43.727 9.2 81 7.3 101570 71
2003-04-01 07:35:27 51°18.936 2°43.725 10.3 84 7.3 101570 71
2003-04-01 07:35:33 51°18.936 2°43.722 9.5 84 7.3 101570 71
2003-04-01 07:35:37 51°18.936 2°43.72 13.1 94 7.4 101570 71
2003-04-01 07:35:43 51°18.937 2°43.717 9.9 87 7.4 101570 71
2003-04-01 07:35:47 51°18.937 2°43.715 10.7 81 7.3 101560 71
2003-04-01 07:35:52 51°18.938 2°43.713 12.4 85 7.3 101560 71
2003-04-01 07:35:57 51°18.938 2°43.711 13.5 89 7.3 101570 72
2003-04-01 07:36:03 51°18.938 2°43.709 11.5 85 7.3 101570 72
2003-04-01 07:36:07 51°18.938 2°43.707 11.5 84 7.3 101580 71
2003-04-01 07:36:12 51°18.938 2°43.706 11.8 86 7.3 101580 71
2003-04-01 07:36:17 51°18.938 2°43.704 10.6 83 7.3 101560 70
2003-04-01 07:36:21 51°18.938 2°43.702 10.9 87 7.3 101560 70
2003-04-01 07:36:27 51°18.938 2°43.701 10.5 84 7.3 101570 70
2003-04-01 07:36:32 51°18.938 2°43.7 11.5 94 7.3 101570 70
2003-04-01 07:36:37 51°18.938 2°43.698 9.8 86 7.3 101570 70
2003-04-01 07:36:42 51°18.938 2°43.697 9.7 85 7.3 101570 70
2003-04-01 07:36:47 51°18.938 2°43.696 12.3 95 7.3 101570 70
2003-04-01 07:36:51 51°18.938 2°43.695 11.3 94 7.3 101570 70
2003-04-01 07:36:57 51°18.938 2°43.693 8.9 92 7.3 101570 71
2003-04-01 07:37:02 51°18.938 2°43.692 9.4 99 7.3 101570 71
2003-04-01 07:37:07 51°18.938 2°43.692 10.2 99 7.3 101570 71
2003-04-01 07:37:12 51°18.938 2°43.691 9.8 97 7.3 101570 71
2003-04-01 07:37:17 51°18.937 2°43.69 8.2 102 7.3 101560 71
2003-04-01 07:37:22 51°18.936 2°43.69 10.5 96 7.3 101560 71
2003-04-01 07:37:27 51°18.936 2°43.689 11.1 97 7.3 101570 71
2003-04-01 07:37:32 51°18.936 2°43.689 10.9 96 7.3 101570 71
2003-04-01 07:37:37 51°18.935 2°43.688 9.9 100 7.3 101580 72
2003-04-01 07:37:43 51°18.934 2°43.687 10.7 100 7.3 101580 72
2003-04-01 07:37:47 51°18.933 2°43.687 5.7 107 7.2 101570 72
2003-04-01 07:37:52 51°18.933 2°43.686 6.6 103 7.2 101570 72
2003-04-01 07:37:57 51°18.932 2°43.686 9.7 101 7.2 101580 71
2003-04-01 07:38:03 51°18.931 2°43.686 7.4 105 7.2 101580 71
2003-04-01 07:38:07 51°18.93 2°43.685 7.1 108 7.2 101580 71
2003-04-01 07:38:12 51°18.93 2°43.685 7.2 104 7.2 101580 71
2003-04-01 07:38:17 51°18.929 2°43.684 7 107 7.2 101570 72
2003-04-01 07:38:22 51°18.928 2°43.684 6.4 106 7.2 101570 72
2003-04-01 07:38:27 51°18.927 2°43.683 5.6 103 7.2 101580 72
2003-04-01 07:38:33 51°18.926 2°43.683 7.2 107 7.2 101580 72
2003-04-01 07:38:37 51°18.925 2°43.682 7.8 104 7.2 101570 72
2003-04-01 07:38:41 51°18.924 2°43.682 6.4 108 7.2 101570 72
2003-04-01 07:38:47 51°18.923 2°43.681 8.8 114 7.2 101570 73
2003-04-01 07:38:52 51°18.922 2°43.68 7.8 115 7.2 101570 73
2003-04-01 07:38:57 51°18.921 2°43.68 8.2 117 7.2 101580 73
2003-04-01 07:39:02 51°18.919 2°43.679 7.5 110 7.2 101580 73
2003-04-01 07:39:07 51°18.918 2°43.678 9.1 116 7.2 101580 73
2003-04-01 07:39:12 51°18.917 2°43.677 8.7 118 7.2 101580 73
2003-04-01 07:39:17 51°18.916 2°43.677 8.9 120 7.2 101580 73
2003-04-01 07:39:23 51°18.915 2°43.676 9.5 120 7.2 101580 73
2003-04-01 07:39:27 51°18.914 2°43.676 9.7 119 7.2 101570 73
2003-04-01 07:39:32 51°18.912 2°43.675 9.6 125 7.2 101570 73
2003-04-01 07:39:37 51°18.912 2°43.674 9.7 130 7.2 101590 73
2003-04-01 07:39:43 51°18.91 2°43.674 9.2 124 7.2 101590 73
2003-04-01 07:39:47 51°18.909 2°43.673 10 123 7.2 101580 73
2003-04-01 07:39:52 51°18.908 2°43.673 8.7 128 7.2 101580 73
2003-04-01 07:39:57 51°18.907 2°43.671 9.5 121 7.2 101580 73
2003-04-01 07:40:01 51°18.906 2°43.67 10.2 126 7.2 101580 73
2003-04-01 07:40:07 51°18.905 2°43.67 9.1 125 7.2 101590 73
2003-04-01 07:40:12 51°18.903 2°43.67 10 123 7.2 101590 73
2003-04-01 07:40:17 51°18.902 2°43.669 10.1 125 7.2 101570 73
2003-04-01 07:40:21 51°18.901 2°43.668 8.8 123 7.2 101570 73
2003-04-01 07:40:27 51°18.899 2°43.667 9.3 133 7.2 101580 73
2003-04-01 07:40:32 51°18.898 2°43.667 10.5 130 7.2 101580 73
2003-04-01 07:40:37 51°18.897 2°43.666 9.8 126 7.2 101580 73
2003-04-01 07:40:43 51°18.896 2°43.666 9.1 133 7.2 101580 73
2003-04-01 07:40:47 51°18.895 2°43.665 11.1 130 7.1 101590 74
2003-04-01 07:40:52 51°18.894 2°43.664 9.3 127 7.1 101590 74
2003-04-01 07:40:57 51°18.893 2°43.664 10.2 130 7.1 101580 73
2003-04-01 07:41:01 51°18.893 2°43.663 8.9 128 7.1 101580 73
2003-04-01 07:41:07 51°18.892 2°43.662 9.5 126 7.1 101550 72
2003-04-01 07:41:12 51°18.891 2°43.661 10.4 130 7.1 101550 72
2003-04-01 07:41:17 51°18.891 2°43.661 9 134 7.1 101560 72
2003-04-01 07:41:21 51°18.89 2°43.66 11 134 7.1 101560 72
2003-04-01 07:41:27 51°18.89 2°43.659 9.7 133 7.1 101560 73
2003-04-01 07:41:33 51°18.889 2°43.658 10.3 133 7.1 101560 73
2003-04-01 07:41:37 51°18.889 2°43.657 9.2 135 7.1 101550 73
2003-04-01 07:41:41 51°18.888 2°43.656 10.8 135 7.1 101550 73
2003-04-01 07:41:47 51°18.888 2°43.656 10.4 134 7.1 101560 73
2003-04-01 07:41:51 51°18.888 2°43.655 9.8 134 7.1 101560 73
2003-04-01 07:41:57 51°18.887 2°43.653 8.5 137 7.1 101550 73
2003-04-01 07:42:01 51°18.887 2°43.653 11.2 126 7.1 101550 73
2003-04-01 07:42:07 51°18.887 2°43.651 10.6 129 7.1 101550 72
2003-04-01 07:42:11 51°18.887 2°43.65 9.6 133 7.1 101550 72
2003-04-01 07:42:17 51°18.887 2°43.649 10.7 131 7.1 101550 72
2003-04-01 07:42:21 51°18.887 2°43.649 10 132 7.1 101550 72
2003-04-01 07:42:27 51°18.886 2°43.647 9.2 128 7.1 101550 73
2003-04-01 07:42:31 51°18.886 2°43.646 10 128 7.1 101550 73
2003-04-01 07:42:37 51°18.886 2°43.645 10.6 127 7.1 101550 73
2003-04-01 07:42:43 51°18.886 2°43.644 10.2 128 7.1 101550 73
2003-04-01 07:42:47 51°18.886 2°43.643 8.9 126 7 101550 73
2003-04-01 07:42:52 51°18.887 2°43.641 8.3 121 7 101550 73
2003-04-01 07:42:57 51°18.887 2°43.64 8 124 7.1 101540 73
2003-04-01 07:43:01 51°18.887 2°43.638 9.3 126 7.1 101540 73
2003-04-01 07:43:07 51°18.888 2°43.637 9.2 124 7.1 101550 73
2003-04-01 07:43:12 51°18.888 2°43.635 9.4 130 7.1 101550 73
2003-04-01 07:43:17 51°18.889 2°43.633 8.1 118 7.1 101540 73
2003-04-01 07:43:22 51°18.89 2°43.631 8.6 126 7.1 101540 73
2003-04-01 07:43:27 51°18.89 2°43.63 8.5 120 7 101550 73
2003-04-01 07:43:31 51°18.891 2°43.628 7.2 119 7 101550 73
2003-04-01 07:43:37 51°18.892 2°43.626 8.5 124 7.1 101550 73
2003-04-01 07:43:41 51°18.893 2°43.625 8.9 126 7.1 101550 73
2003-04-01 07:43:47 51°18.894 2°43.623 9.3 126 7 101540 73
2003-04-01 07:43:52 51°18.895 2°43.621 7.6 127 7 101540 73
2003-04-01 07:43:57 51°18.896 2°43.619 8.8 135 7 101550 73
2003-04-01 07:44:02 51°18.897 2°43.617 7.5 127 7 101550 73
2003-04-01 07:44:07 51°18.899 2°43.615 7.3 126 7 101540 74
2003-04-01 07:44:12 51°18.9 2°43.614 8.9 134 7 101540 74
2003-04-01 07:44:17 51°18.901 2°43.611 8.7 132 7 101550 74
2003-04-01 07:44:21 51°18.902 2°43.61 7.9 137 7 101550 74
2003-04-01 07:44:27 51°18.904 2°43.608 9.1 133 7 101540 74
2003-04-01 07:44:32 51°18.905 2°43.607 7.4 135 7 101540 74
2003-04-01 07:44:37 51°18.907 2°43.606 7.3 135 7 101540 74
2003-04-01 07:44:41 51°18.908 2°43.605 7.6 137 7 101540 74
2003-04-01 07:44:47 51°18.91 2°43.603 7.8 129 7 101540 74
2003-04-01 07:44:52 51°18.912 2°43.602 7.4 136 7 101540 74
2003-04-01 07:44:57 51°18.913 2°43.601 6.6 140 7 101540 74
2003-04-01 07:45:01 51°18.914 2°43.6 7.2 140 7 101540 74
2003-04-01 07:45:07 51°18.916 2°43.598 8.2 142 7 101550 75
2003-04-01 07:45:12 51°18.918 2°43.597 8 142 7 101550 75
2003-04-01 07:45:17 51°18.92 2°43.597 8.3 144 7 101540 75
2003-04-01 07:45:21 51°18.921 2°43.596 9.2 148 7 101540 75
2003-04-01 07:45:27 51°18.923 2°43.595 8.1 153 7 101550 75
2003-04-01 07:45:32 51°18.924 2°43.595 7.9 154 7 101550 75
2003-04-01 07:45:37 51°18.926 2°43.595 5.9 163 7 101550 75
2003-04-01 07:45:43 51°18.928 2°43.594 7.3 166 7 101550 75
2003-04-01 07:45:47 51°18.929 2°43.595 4.7 167 7 101550 75
2003-04-01 07:45:52 51°18.93 2°43.595 6 176 7 101550 75
2003-04-01 07:45:57 51°18.932 2°43.595 6.7 181 7 101550 74
2003-04-01 07:46:03 51°18.933 2°43.596 5.6 179 7 101550 74
2003-04-01 07:46:07 51°18.934 2°43.597 5.5 178 7 101550 75
2003-04-01 07:46:12 51°18.935 2°43.598 7.7 187 7 101550 75
2003-04-01 07:46:17 51°18.936 2°43.599 6.4 188 7.1 101550 75
2003-04-01 07:46:21 51°18.937 2°43.599 8.6 188 7.1 101550 75
2003-04-01 07:46:27 51°18.938 2°43.601 9.3 198 7.1 101560 75
2003-04-01 07:46:32 51°18.939 2°43.602 7.1 202 7.1 101560 75
2003-04-01 07:46:37 51°18.939 2°43.603 7.5 203 7.1 101550 75
2003-04-01 07:46:43 51°18.94 2°43.605 7.6 205 7.1 101550 75
2003-04-01 07:46:47 51°18.94 2°43.606 8 212 7.1 101570 74
2003-04-01 07:46:52 51°18.941 2°43.608 7.8 208 7.1 101570 74
2003-04-01 07:46:57 51°18.941 2°43.61 8.7 217 7.1 101560 74
2003-04-01 07:47:01 51°18.941 2°43.611 7.9 220 7.1 101560 74
2003-04-01 07:47:07 51°18.941 2°43.613 8.5 219 7.1 101550 75
2003-04-01 07:47:13 51°18.941 2°43.615 9.6 224 7.1 101550 75
2003-04-01 07:47:17 51°18.941 2°43.617 9.6 228 7.1 101560 75
2003-04-01 07:47:21 51°18.941 2°43.618 9.6 228 7.1 101560 75
2003-04-01 07:47:27 51°18.94 2°43.62 8.9 224 7.1 101560 75
2003-04-01 07:47:31 51°18.94 2°43.622 8.4 228 7.1 101560 75
2003-04-01 07:47:37 51°18.939 2°43.624 9 234 7.1 101570 75
2003-04-01 07:47:41 51°18.939 2°43.626 9 234 7.1 101570 75
2003-04-01 07:47:47 51°18.938 2°43.628 8.6 237 7.1 101560 75
2003-04-01 07:47:52 51°18.937 2°43.63 8.9 236 7.1 101560 75
2003-04-01 07:47:57 51°18.937 2°43.632 9.8 234 7.1 101570 75
2003-04-01 07:48:01 51°18.936 2°43.633 10 239 7.1 101570 75
2003-04-01 07:48:07 51°18.935 2°43.635 9.5 237 7.1 101560 75
2003-04-01 07:48:12 51°18.934 2°43.638 9 243 7.1 101560 75
2003-04-01 07:48:17 51°18.933 2°43.639 8.6 240 7.1 101560 74
2003-04-01 07:48:21 51°18.933 2°43.641 8.2 247 7.1 101560 74
2003-04-01 07:48:27 51°18.932 2°43.644 8 246 7.1 101560 74
2003-04-01 07:48:32 51°18.93 2°43.645 9.9 253 7.1 101560 74
2003-04-01 07:48:37 51°18.928 2°43.646 10.7 247 7.1 101560 75
2003-04-01 07:48:42 51°18.927 2°43.646 9.6 255 7.1 101560 75
2003-04-01 07:48:47 51°18.925 2°43.647 9.2 247 7.1 101570 75
2003-04-01 07:48:52 51°18.923 2°43.648 8.3 254 7.1 101570 75
2003-04-01 07:48:57 51°18.921 2°43.649 8.4 255 7.1 101560 75
2003-04-01 07:49:01 51°18.92 2°43.65 10.1 265 7.1 101560 75
2003-04-01 07:49:07 51°18.918 2°43.651 8.8 257 7 101560 75
2003-04-01 07:49:12 51°18.916 2°43.652 11 263 7 101560 75
2003-04-01 07:49:17 51°18.914 2°43.654 10.3 266 7.1 101560 75
2003-04-01 07:49:23 51°18.913 2°43.655 9.6 270 7.1 101560 75
2003-04-01 07:49:27 51°18.911 2°43.656 9.6 269 7 101550 75
2003-04-01 07:49:32 51°18.909 2°43.657 9.8 269 7 101550 75
2003-04-01 07:49:37 51°18.908 2°43.657 10.4 268 7.1 101560 75
2003-04-01 07:49:41 51°18.906 2°43.657 10.3 272 7.1 101560 75
2003-04-01 07:49:47 51°18.903 2°43.658 9.3 276 7.1 101550 75
2003-04-01 07:49:52 51°18.902 2°43.658 8.3 280 7.1 101550 75
2003-04-01 07:49:57 51°18.899 2°43.659 10.4 274 7.1 101550 75
2003-04-01 07:50:03 51°18.897 2°43.659 8.6 280 7.1 101550 75
2003-04-01 07:50:07 51°18.895 2°43.659 9.3 277 7 101550 75
2003-04-01 07:50:12 51°18.893 2°43.66 8.4 279 7 101550 75
2003-04-01 07:50:17 51°18.891 2°43.66 7.6 279 7 101540 75
2003-04-01 07:50:22 51°18.889 2°43.661 9 282 7 101540 75
2003-04-01 07:50:27 51°18.887 2°43.661 9 289 7 101550 75
2003-04-01 07:50:32 51°18.885 2°43.661 9 286 7 101550 75
2003-04-01 07:50:37 51°18.883 2°43.661 7.5 286 7 101550 76
2003-04-01 07:50:43 51°18.88 2°43.661 9.3 290 7 101550 76
2003-04-01 07:50:47 51°18.879 2°43.661 9.2 290 7 101550 76
2003-04-01 07:50:52 51°18.876 2°43.661 9.3 289 7 101550 76
2003-04-01 07:50:57 51°18.874 2°43.661 7.8 285 7 101520 76
2003-04-01 07:51:01 51°18.873 2°43.661 9 291 7 101520 76
2003-04-01 07:51:07 51°18.869 2°43.662 9.5 296 7 101520 75
2003-04-01 07:51:12 51°18.866 2°43.662 9.6 301 7 101520 75
2003-04-01 07:51:17 51°18.863 2°43.662 10.9 308 7 101520 75
2003-04-01 07:51:21 51°18.86 2°43.662 11 304 7 101520 75
2003-04-01 07:51:27 51°18.855 2°43.662 10.5 315 7 101520 75
2003-04-01 07:51:32 51°18.85 2°43.661 10.7 322 7 101520 75
2003-04-01 07:51:37 51°18.845 2°43.659 10.5 328 7 101520 75
2003-04-01 07:51:42 51°18.84 2°43.657 11.2 327 7 101520 75
2003-04-01 07:51:47 51°18.835 2°43.654 11.5 338 7 101510 75
2003-04-01 07:51:52 51°18.83 2°43.651 11.4 342 7 101510 75
2003-04-01 07:51:57 51°18.825 2°43.646 11.4 345 7 101510 75
2003-04-01 07:52:01 51°18.821 2°43.642 10.7 352 7 101510 75
2003-04-01 07:52:07 51°18.815 2°43.635 9.2 352 7 101510 75
2003-04-01 07:52:12 51°18.81 2°43.628 10 4 7 101510 75
2003-04-01 07:52:17 51°18.806 2°43.62 10.9 8 7 101510 75
2003-04-01 07:52:22 51°18.801 2°43.612 10.3 12 7 101510 75
2003-04-01 07:52:27 51°18.797 2°43.603 10 14 7 101520 75
2003-04-01 07:52:31 51°18.794 2°43.595 11.5 22 7 101520 75
2003-04-01 07:52:37 51°18.79 2°43.582 11.4 20 7 101520 76
2003-04-01 07:52:41 51°18.788 2°43.574 11.8 24 7 101520 76
2003-04-01 07:52:47 51°18.784 2°43.56 12.6 26 7 101510 76
2003-04-01 07:52:51 51°18.783 2°43.55 12.5 28 7 101510 76
2003-04-01 07:52:57 51°18.78 2°43.535 11.9 34 7 101510 76
2003-04-01 07:53:01 51°18.779 2°43.525 11.7 27 7 101510 76
2003-04-01 07:53:07 51°18.777 2°43.509 12.3 30 7 101500 75
2003-04-01 07:53:12 51°18.775 2°43.496 13.4 34 7 101500 75
2003-04-01 07:53:17 51°18.773 2°43.482 10.3 30 7 101500 75
2003-04-01 07:53:22 51°18.771 2°43.467 13.4 33 7 101500 75
2003-04-01 07:53:27 51°18.769 2°43.452 13.5 36 7 101500 75
2003-04-01 07:53:32 51°18.768 2°43.437 11.9 32 7 101500 75
2003-04-01 07:53:37 51°18.766 2°43.421 13 35 7.1 101500 75
2003-04-01 07:53:41 51°18.765 2°43.408 12 34 7.1 101500 75
2003-04-01 07:53:47 51°18.763 2°43.389 11.3 31 7.1 101490 75
2003-04-01 07:53:52 51°18.761 2°43.372 11.6 25 7.1 101490 75
2003-04-01 07:53:57 51°18.759 2°43.355 11.6 29 7.1 101490 75
2003-04-01 07:54:03 51°18.757 2°43.335 11.8 28 7.1 101490 75
2003-04-01 07:54:07 51°18.756 2°43.321 14 35 7.1 101490 75
2003-04-01 07:54:12 51°18.754 2°43.304 13.6 34 7.1 101490 75
2003-04-01 07:54:17 51°18.752 2°43.287 13.1 32 7.1 101490 75
2003-04-01 07:54:23 51°18.75 2°43.266 13.2 31 7.1 101490 75
2003-04-01 07:54:27 51°18.749 2°43.251 12.9 31 7.1 101490 76
2003-04-01 07:54:32 51°18.747 2°43.234 13.3 27 7.1 101490 76
2003-04-01 07:54:37 51°18.745 2°43.216 13.4 29 7.1 101480 75
2003-04-01 07:54:43 51°18.743 2°43.195 12.6 30 7.1 101480 75
2003-04-01 07:54:47 51°18.741 2°43.18 12.7 35 7.1 101490 75
2003-04-01 07:54:52 51°18.739 2°43.163 13 29 7.1 101490 75
2003-04-01 07:54:57 51°18.737 2°43.145 13.1 29 7.1 101490 75
2003-04-01 07:55:02 51°18.735 2°43.126 12 30 7.1 101490 75
2003-04-01 07:55:07 51°18.733 2°43.108 13 28 7.1 101490 75
2003-04-01 07:55:12 51°18.731 2°43.091 12.8 31 7.1 101490 75
2003-04-01 07:55:17 51°18.73 2°43.072 13.2 29 7.1 101490 75
2003-04-01 07:55:21 51°18.728 2°43.057 13.4 30 7.1 101490 75
2003-04-01 07:55:27 51°18.726 2°43.036 14.3 32 7.1 101480 75
2003-04-01 07:55:32 51°18.725 2°43.018 13.1 34 7.1 101480 75
2003-04-01 07:55:37 51°18.723 2°42.999 12.7 34 7.1 101480 75
2003-04-01 07:55:42 51°18.721 2°42.981 11.8 32 7.1 101480 75
2003-04-01 07:55:47 51°18.719 2°42.963 12.5 33 7.1 101480 75